Location: Bassano
(45.7667°N, 11.7333°E)
Time: 16:24:15
(UTC+00:00)

ISS - Visible Passes

Search period start: 23 June 2021 00:00
Search period end: 03 July 2021 00:00
Orbit: 417 x 422 km, 51.6° (Epoch: 22 June)

Date Brightness Start Highest point End Pass type
(mag) Time Alt. Az. Time Alt. Az. Time Alt. Az.
27 Jun -1.3 02:14:31 10° SSE 02:16:10 13° SE 02:17:47 10° ESE visible
29 Jun -2.6 02:15:15 14° SSW 02:17:44 32° SE 02:20:47 10° ENE visible
30 Jun -2.0 01:29:33 19° SSE 01:30:26 21° SE 01:33:02 10° E visible
01 Jul -1.3 00:43:47 13° ESE 00:43:47 13° ESE 00:44:51 10° ESE visible
01 Jul -3.8 02:16:44 14° SW 02:19:31 80° SSE 02:22:54 10° ENE visible
02 Jul -3.4 01:30:56 32° SSW 01:32:07 51° SE 01:35:24 10° ENE visible
